{"data":{"norad_id":67321,"epoch":"2026-09-19T11:30:40.467456Z","epoch_age_seconds":163376,"freshness":"FRESH","line1":"1 67321U 26002S   26262.47963504  .00013218  00000+0  48874-3 0  9993","line2":"2 67321  43.0045 311.1047 0002770 300.0653  59.9924 15.27596168 40717","mean_motion":15.27596168,"eccentricity":0.000277,"inclination_deg":43.0045,"raan_deg":311.1047,"arg_perigee_deg":300.0653,"mean_anomaly_deg":59.9924,"bstar":0.00048874,"rev_number":4071,"period_min":94.265750999187,"perigee_km":481.10014851987,"apogee_km":484.90121879662,"semimajor_km":6861.1376836582,"source":"CELESTRAK","updated_at":"2026-09-20T09:00:43.506663Z"}}